Time,TemperatureF,DewpointF,PressureIn,WindDirection,WindDirectionDegrees,WindSpeedMPH,WindSpeedGustMPH,Humidity,HourlyPrecipIn,Conditions,Clouds,dailyrainin,SolarRadiationWatts/m^2,SoftwareType,DateUTC
2013-03-09 00:01:00,50.3,43.7,30.14,WNW,285,5.0,9.0,78,0.00,,,0.00,0.00,VWS V14.01,2013-03-09 08:01:00,
2013-03-09 00:06:00,50.3,43.7,30.15,West,277,2.0,9.0,78,0.00,,,0.00,0.00,VWS V14.01,2013-03-09 08:06:00,
2013-03-09 00:11:00,50.3,43.7,30.15,WNW,298,3.0,6.0,78,0.00,,,0.00,0.00,VWS V14.01,2013-03-09 08:11:00,
2013-03-09 00:16:00,50.2,43.6,30.15,WNW,291,2.0,9.0,78,0.00,,,0.00,0.00,VWS V14.01,2013-03-09 08:16:00,
2013-03-09 00:21:00,50.3,43.7,30.15,NW,307,4.0,5.0,78,0.00,,,0.00,0.00,VWS V14.01,2013-03-09 08:21:00,
2013-03-09 00:26:00,50.3,44.0,30.15,NW,306,2.0,10.0,79,0.00,,,0.00,0.00,VWS V14.01,2013-03-09 08:26:00,
2013-03-09 00:31:00,50.3,44.4,30.16,WNW,295,5.0,5.0,80,0.00,,,0.00,0.00,VWS V14.01,2013-03-09 08:31:00,
2013-03-09 00:36:00,50.3,44.4,30.16,NNW,329,3.0,7.0,80,0.00,,,0.00,0.00,VWS V14.01,2013-03-09 08:36:00,
2013-03-09 00:41:00,50.3,44.4,30.16,WNW,299,6.0,6.0,80,0.00,,,0.00,0.00,VWS V14.01,2013-03-09 08:41:00,
2013-03-09 00:46:00,50.3,44.4,30.16,WSW,247,5.0,7.0,80,0.00,,,0.00,0.00,VWS V14.01,2013-03-09 08:46:00,
2013-03-09 00:51:00,50.2,44.3,30.16,WNW,296,4.0,8.0,80,0.00,,,0.00,0.00,VWS V14.01,2013-03-09 08:51:00,
2013-03-09 00:56:00,50.2,43.6,30.16,WNW,291,2.0,8.0,78,0.00,,,0.00,0.00,VWS V14.01,2013-03-09 08:56:00,
2013-03-09 01:01:00,50.3,43.7,30.16,NW,306,6.0,9.0,78,0.00,,,0.00,0.00,VWS V14.01,2013-03-09 09:01:00,
2013-03-09 01:06:00,50.3,44.0,30.16,West,272,5.0,9.0,79,0.00,,,0.00,0.00,VWS V14.01,2013-03-09 09:06:00,
2013-03-09 01:11:00,50.3,44.4,30.16,WNW,300,5.0,5.0,80,0.00,,,0.00,0.00,VWS V14.01,2013-03-09 09:11:00,
2013-03-09 01:16:00,50.2,44.0,30.16,NNE,20,7.0,13.0,79,0.00,,,0.00,0.00,VWS V14.01,2013-03-09 09:16:00,
2013-03-09 01:21:00,50.3,44.0,30.16,WNW,293,1.0,5.0,79,0.00,,,0.00,0.00,VWS V14.01,2013-03-09 09:21:00,
2013-03-09 01:26:00,50.3,44.0,30.16,WSW,249,6.0,8.0,79,0.00,,,0.00,0.00,VWS V14.01,2013-03-09 09:26:00,
2013-03-09 01:31:00,50.3,44.0,30.17,WNW,297,5.0,7.0,79,0.00,,,0.00,0.00,VWS V14.01,2013-03-09 09:31:00,
2013-03-09 01:36:00,50.3,44.4,30.16,West,268,7.0,8.0,80,0.00,,,0.00,0.00,VWS V14.01,2013-03-09 09:36:00,
2013-03-09 01:41:00,50.2,44.3,30.16,WNW,293,12.0,12.0,80,0.00,,,0.00,0.00,VWS V14.01,2013-03-09 09:41:00,
2013-03-09 01:46:00,50.2,44.3,30.16,West,272,4.0,12.0,80,0.00,,,0.00,0.00,VWS V14.01,2013-03-09 09:46:00,
2013-03-09 01:51:00,50.2,44.6,30.16,NW,320,1.0,4.0,81,0.00,,,0.00,0.00,VWS V14.01,2013-03-09 09:51:00,
2013-03-09 01:56:00,50.2,44.6,30.16,NNW,346,3.0,9.0,81,0.00,,,0.00,0.00,VWS V14.01,2013-03-09 09:56:00,
2013-03-09 02:01:00,50.1,44.5,30.16,WNW,290,7.0,7.0,81,0.00,,,0.00,0.00,VWS V14.01,2013-03-09 10:01:00,
2013-03-09 02:06:00,50.0,44.1,30.16,West,264,6.0,9.0,80,0.00,,,0.00,0.00,VWS V14.01,2013-03-09 10:06:00,
2013-03-09 02:11:00,50.0,44.1,30.16,NW,306,1.0,6.0,80,0.00,,,0.00,0.00,VWS V14.01,2013-03-09 10:11:00,
2013-03-09 02:16:00,50.0,44.4,30.16,West,276,6.0,6.0,81,0.00,,,0.00,0.00,VWS V14.01,2013-03-09 10:16:00,
2013-03-09 02:21:00,50.0,44.4,30.16,WNW,296,1.0,5.0,81,0.00,,,0.00,0.00,VWS V14.01,2013-03-09 10:21:00,
2013-03-09 02:26:00,50.0,44.4,30.16,WNW,286,0.0,7.0,81,0.00,,,0.00,0.00,VWS V14.01,2013-03-09 10:26:00,
2013-03-09 02:31:00,49.9,44.3,30.16,NW,312,4.0,4.0,81,0.00,,,0.00,0.00,VWS V14.01,2013-03-09 10:31:00,
2013-03-09 02:36:00,49.9,44.3,30.16,NNW,337,2.0,7.0,81,0.00,,,0.00,0.00,VWS V14.01,2013-03-09 10:36:00,
2013-03-09 02:41:00,49.9,44.3,30.16,NW,312,1.0,4.0,81,0.00,,,0.00,0.00,VWS V14.01,2013-03-09 10:41:00,
2013-03-09 02:46:00,49.8,44.2,30.16,NW,310,4.0,10.0,81,0.00,,,0.00,0.00,VWS V14.01,2013-03-09 10:46:00,
2013-03-09 02:51:00,49.8,43.6,30.16,WNW,289,4.0,7.0,79,0.00,,,0.00,0.00,VWS V14.01,2013-03-09 10:51:00,
2013-03-09 02:56:00,49.9,43.7,30.16,WNW,287,4.0,7.0,79,0.00,,,0.00,0.00,VWS V14.01,2013-03-09 10:56:00,
2013-03-09 03:01:00,49.9,44.0,30.16,WNW,301,2.0,8.0,80,0.00,,,0.00,0.00,VWS V14.01,2013-03-09 11:01:00,
2013-03-09 03:06:00,49.9,44.0,30.16,NNW,329,2.0,11.0,80,0.00,,,0.00,0.00,VWS V14.01,2013-03-09 11:06:00,
2013-03-09 03:11:00,49.8,43.6,30.17,WNW,301,1.0,4.0,79,0.00,,,0.00,0.00,VWS V14.01,2013-03-09 11:11:00,
2013-03-09 03:16:00,49.9,43.3,30.17,WNW,296,5.0,9.0,78,0.00,,,0.00,0.00,VWS V14.01,2013-03-09 11:16:00,
2013-03-09 03:21:00,49.8,42.5,30.17,NW,304,6.0,8.0,76,0.00,,,0.00,0.00,VWS V14.01,2013-03-09 11:21:00,
2013-03-09 03:26:00,49.8,41.9,30.17,West,259,1.0,8.0,74,0.00,,,0.00,0.00,VWS V14.01,2013-03-09 11:26:00,
2013-03-09 03:31:00,49.8,42.2,30.17,WNW,292,6.0,8.0,75,0.00,,,0.00,0.00,VWS V14.01,2013-03-09 11:31:00,
2013-03-09 03:36:00,49.9,42.3,30.17,WNW,283,5.0,8.0,75,0.00,,,0.00,0.00,VWS V14.01,2013-03-09 11:36:00,
2013-03-09 03:41:00,49.9,42.0,30.17,NW,309,3.0,7.0,74,0.00,,,0.00,0.00,VWS V14.01,2013-03-09 11:41:00,
2013-03-09 03:46:00,49.9,42.0,30.17,West,259,1.0,7.0,74,0.00,,,0.00,0.00,VWS V14.01,2013-03-09 11:46:00,
2013-03-09 03:51:00,50.0,42.7,30.18,NW,315,6.0,11.0,76,0.00,,,0.00,0.00,VWS V14.01,2013-03-09 11:51:00,
2013-03-09 03:56:00,50.0,43.1,30.18,West,279,7.0,11.0,77,0.00,,,0.00,0.00,VWS V14.01,2013-03-09 11:56:00,
2013-03-09 04:01:00,50.0,43.1,30.18,West,280,6.0,8.0,77,0.00,,,0.00,0.00,VWS V14.01,2013-03-09 12:01:00,
2013-03-09 04:06:00,50.0,43.4,30.18,NW,322,3.0,8.0,78,0.00,,,0.00,0.00,VWS V14.01,2013-03-09 12:06:00,
2013-03-09 04:11:00,50.0,43.1,30.19,NW,318,4.0,5.0,77,0.00,,,0.00,0.00,VWS V14.01,2013-03-09 12:11:00,
2013-03-09 04:16:00,50.0,43.1,30.19,West,278,6.0,8.0,77,0.00,,,0.00,0.00,VWS V14.01,2013-03-09 12:16:00,
2013-03-09 04:21:00,50.1,43.5,30.19,West,281,2.0,4.0,78,0.00,,,0.00,0.00,VWS V14.01,2013-03-09 12:21:00,
2013-03-09 04:26:00,50.0,43.4,30.20,WNW,287,2.0,9.0,78,0.00,,,0.00,0.00,VWS V14.01,2013-03-09 12:26:00,
2013-03-09 04:32:00,50.0,43.4,30.20,West,270,3.0,7.0,78,0.00,,,0.00,0.00,VWS V14.01,2013-03-09 12:32:00,
2013-03-09 04:37:00,49.9,43.3,30.20,NW,308,3.0,10.0,78,0.00,,,0.00,0.00,VWS V14.01,2013-03-09 12:37:00,
2013-03-09 04:42:00,49.9,43.3,30.20,WNW,291,1.0,6.0,78,0.00,,,0.00,0.00,VWS V14.01,2013-03-09 12:42:00,
2013-03-09 04:47:00,49.9,43.3,30.20,WSW,258,4.0,8.0,78,0.00,,,0.00,0.00,VWS V14.01,2013-03-09 12:47:00,
2013-03-09 04:52:00,50.0,43.4,30.21,WNW,301,6.0,8.0,78,0.00,,,0.00,0.00,VWS V14.01,2013-03-09 12:52:00,
2013-03-09 04:57:00,50.0,43.4,30.21,WNW,301,2.0,9.0,78,0.00,,,0.00,0.00,VWS V14.01,2013-03-09 12:57:00,
2013-03-09 05:02:00,50.0,43.4,30.22,WNW,296,6.0,8.0,78,0.00,,,0.00,0.00,VWS V14.01,2013-03-09 13:02:00,
2013-03-09 05:07:00,50.1,43.8,30.22,West,268,7.0,8.0,79,0.00,,,0.00,0.00,VWS V14.01,2013-03-09 13:07:00,
2013-03-09 05:12:00,50.1,43.8,30.22,WNW,283,3.0,6.0,79,0.00,,,0.00,0.00,VWS V14.01,2013-03-09 13:12:00,
2013-03-09 05:17:00,50.1,44.2,30.22,WNW,286,4.0,6.0,80,0.00,,,0.00,0.00,VWS V14.01,2013-03-09 13:17:00,
2013-03-09 05:22:00,50.1,44.2,30.22,NW,308,5.0,7.0,80,0.00,,,0.00,0.00,VWS V14.01,2013-03-09 13:22:00,
2013-03-09 05:27:00,50.1,44.2,30.23,WNW,285,6.0,11.0,80,0.00,,,0.00,0.00,VWS V14.01,2013-03-09 13:27:00,
2013-03-09 05:32:00,50.1,44.2,30.23,West,265,6.0,6.0,80,0.00,,,0.00,0.00,VWS V14.01,2013-03-09 13:32:00,
2013-03-09 05:37:00,50.0,44.1,30.23,West,281,5.0,10.0,80,0.00,,,0.00,0.00,VWS V14.01,2013-03-09 13:37:00,
2013-03-09 05:42:00,50.0,44.1,30.23,WNW,301,4.0,6.0,80,0.00,,,0.00,0.00,VWS V14.01,2013-03-09 13:42:00,
2013-03-09 05:47:00,49.9,43.7,30.22,West,281,4.0,8.0,79,0.00,,,0.00,0.00,VWS V14.01,2013-03-09 13:47:00,
2013-03-09 05:52:00,50.0,44.1,30.23,WNW,302,2.0,6.0,80,0.00,,,0.00,0.00,VWS V14.01,2013-03-09 13:52:00,
2013-03-09 05:57:00,50.1,44.5,30.23,WNW,291,4.0,6.0,81,0.00,,,0.00,0.00,VWS V14.01,2013-03-09 13:57:00,
2013-03-09 06:02:00,50.0,44.1,30.23,NW,317,3.0,8.0,80,0.00,,,0.00,0.00,VWS V14.01,2013-03-09 14:02:00,
2013-03-09 06:07:00,50.0,44.1,30.23,WNW,290,3.0,9.0,80,0.00,,,0.00,0.00,VWS V14.01,2013-03-09 14:07:00,
2013-03-09 06:12:00,50.0,44.1,30.24,WNW,299,4.0,8.0,80,0.00,,,0.00,0.00,VWS V14.01,2013-03-09 14:12:00,
2013-03-09 06:17:00,50.0,44.4,30.23,WNW,285,4.0,8.0,81,0.00,,,0.00,0.00,VWS V14.01,2013-03-09 14:17:00,
2013-03-09 06:22:00,50.0,44.4,30.24,NW,304,5.0,6.0,81,0.00,,,0.00,0.00,VWS V14.01,2013-03-09 14:22:00,
2013-03-09 06:27:00,50.0,44.4,30.24,NNW,345,5.0,10.0,81,0.00,,,0.00,0.00,VWS V14.01,2013-03-09 14:27:00,
2013-03-09 06:32:00,50.1,44.8,30.24,NW,304,3.0,12.0,82,0.00,,,0.00,0.00,VWS V14.01,2013-03-09 14:32:00,
2013-03-09 06:37:00,50.1,44.8,30.24,NW,317,3.0,12.0,82,0.00,,,0.00,5.00,VWS V14.01,2013-03-09 14:37:00,
2013-03-09 06:42:00,50.1,44.8,30.24,NW,306,3.0,5.0,82,0.00,,,0.00,5.00,VWS V14.01,2013-03-09 14:42:00,
2013-03-09 06:47:00,50.1,45.2,30.24,North,5,3.0,8.0,83,0.00,,,0.00,9.00,VWS V14.01,2013-03-09 14:47:00,
2013-03-09 06:52:00,50.1,45.2,30.24,WNW,292,4.0,9.0,83,0.00,,,0.00,14.00,VWS V14.01,2013-03-09 14:52:00,
2013-03-09 06:57:00,50.1,45.2,30.24,WNW,291,4.0,13.0,83,0.00,,,0.00,19.00,VWS V14.01,2013-03-09 14:57:00,
2013-03-09 07:02:00,50.1,45.2,30.24,WNW,287,4.0,6.0,83,0.00,,,0.00,18.00,VWS V14.01,2013-03-09 15:02:00,
2013-03-09 07:07:00,50.2,45.6,30.24,WNW,286,2.0,8.0,84,0.00,,,0.00,19.00,VWS V14.01,2013-03-09 15:07:00,
2013-03-09 07:12:00,50.2,45.6,30.25,NW,308,5.0,8.0,84,0.00,,,0.00,30.00,VWS V14.01,2013-03-09 15:12:00,
2013-03-09 07:17:00,50.2,45.6,30.25,WNW,290,3.0,8.0,84,0.00,,,0.00,42.00,VWS V14.01,2013-03-09 15:17:00,
2013-03-09 07:22:00,50.2,45.6,30.25,West,279,3.0,11.0,84,0.00,,,0.00,47.00,VWS V14.01,2013-03-09 15:22:00,
2013-03-09 07:27:00,50.3,45.7,30.25,NW,320,2.0,11.0,84,0.00,,,0.00,56.00,VWS V14.01,2013-03-09 15:27:00,
2013-03-09 07:32:00,50.4,46.1,30.25,WNW,290,4.0,8.0,85,0.00,,,0.00,63.00,VWS V14.01,2013-03-09 15:32:00,
2013-03-09 07:37:00,50.4,46.1,30.25,WNW,295,5.0,8.0,85,0.00,,,0.00,69.00,VWS V14.01,2013-03-09 15:37:00,
2013-03-09 07:42:00,50.5,46.2,30.25,WNW,295,4.0,5.0,85,0.00,,,0.00,81.00,VWS V14.01,2013-03-09 15:42:00,
2013-03-09 07:47:00,50.6,46.3,30.25,WNW,299,4.0,5.0,85,0.00,,,0.00,98.00,VWS V14.01,2013-03-09 15:47:00,
2013-03-09 07:52:00,50.7,46.4,30.25,WNW,288,6.0,6.0,85,0.00,,,0.00,114.00,VWS V14.01,2013-03-09 15:52:00,
2013-03-09 07:57:00,50.8,46.5,30.25,NW,324,5.0,6.0,85,0.00,,,0.00,120.00,VWS V14.01,2013-03-09 15:57:00,
2013-03-09 08:02:00,50.8,46.5,30.25,NNW,336,3.0,7.0,85,0.00,,,0.00,109.00,VWS V14.01,2013-03-09 16:02:00,
2013-03-09 08:07:00,50.9,46.6,30.25,West,273,4.0,7.0,85,0.00,,,0.00,105.00,VWS V14.01,2013-03-09 16:07:00,
2013-03-09 08:12:00,50.9,46.6,30.26,NW,326,3.0,6.0,85,0.00,,,0.00,109.00,VWS V14.01,2013-03-09 16:12:00,
2013-03-09 08:17:00,50.9,46.2,30.26,NNW,331,4.0,8.0,84,0.00,,,0.00,127.00,VWS V14.01,2013-03-09 16:17:00,
2013-03-09 08:22:00,50.9,46.2,30.26,West,276,2.0,7.0,84,0.00,,,0.00,127.00,VWS V14.01,2013-03-09 16:22:00,
2013-03-09 08:27:00,51.0,46.3,30.26,WNW,293,5.0,8.0,84,0.00,,,0.00,158.00,VWS V14.01,2013-03-09 16:27:00,
2013-03-09 08:32:00,51.2,46.8,30.26,WNW,291,1.0,3.0,85,0.00,,,0.00,178.00,VWS V14.01,2013-03-09 16:32:00,
2013-03-09 08:37:00,51.4,47.0,30.26,West,281,3.0,7.0,85,0.00,,,0.00,200.00,VWS V14.01,2013-03-09 16:37:00,
2013-03-09 08:42:00,51.5,46.8,30.26,WNW,296,5.0,5.0,84,0.00,,,0.00,223.00,VWS V14.01,2013-03-09 16:42:00,
2013-03-09 08:47:00,51.7,47.0,30.27,WNW,286,7.0,7.0,84,0.00,,,0.00,294.00,VWS V14.01,2013-03-09 16:47:00,
2013-03-09 08:52:00,51.9,47.2,30.27,WNW,289,3.0,5.0,84,0.00,,,0.00,239.00,VWS V14.01,2013-03-09 16:52:00,
2013-03-09 08:57:00,52.1,47.1,30.26,WNW,303,3.0,9.0,83,0.00,,,0.00,199.00,VWS V14.01,2013-03-09 16:57:00,
2013-03-09 09:02:00,52.0,46.7,30.26,NNW,334,2.0,5.0,82,0.00,,,0.00,278.00,VWS V14.01,2013-03-09 17:02:00,
2013-03-09 09:07:00,52.1,47.1,30.26,West,280,1.0,6.0,83,0.00,,,0.00,508.00,VWS V14.01,2013-03-09 17:07:00,
2013-03-09 09:12:00,52.4,47.4,30.26,NNE,25,2.0,4.0,83,0.00,,,0.00,253.00,VWS V14.01,2013-03-09 17:12:00,
2013-03-09 09:17:00,52.4,47.1,30.26,WNW,287,3.0,6.0,82,0.00,,,0.00,232.00,VWS V14.01,2013-03-09 17:17:00,
2013-03-09 09:22:00,52.5,47.2,30.26,NNW,329,4.0,5.0,82,0.00,,,0.00,550.00,VWS V14.01,2013-03-09 17:22:00,
2013-03-09 09:28:00,52.9,47.2,30.27,NNW,337,1.0,5.0,81,0.00,,,0.00,559.00,VWS V14.01,2013-03-09 17:28:00,
2013-03-09 09:33:00,53.2,47.5,30.27,NW,321,2.0,3.0,81,0.00,,,0.00,577.00,VWS V14.01,2013-03-09 17:33:00,
2013-03-09 09:38:00,53.5,47.5,30.27,WNW,299,1.0,3.0,80,0.00,,,0.00,594.00,VWS V14.01,2013-03-09 17:38:00,
2013-03-09 09:43:00,53.7,47.3,30.27,NNW,342,3.0,4.0,79,0.00,,,0.00,596.00,VWS V14.01,2013-03-09 17:43:00,
2013-03-09 09:48:00,53.9,47.5,30.27,North,358,1.0,4.0,79,0.00,,,0.00,608.00,VWS V14.01,2013-03-09 17:48:00,
2013-03-09 09:53:00,54.2,47.5,30.27,North,360,1.0,3.0,78,0.00,,,0.00,615.00,VWS V14.01,2013-03-09 17:53:00,
2013-03-09 09:58:00,54.6,47.5,30.28,North,353,0.0,3.0,77,0.00,,,0.00,622.00,VWS V14.01,2013-03-09 17:58:00,
2013-03-09 10:03:00,54.8,47.0,30.28,NW,319,0.0,3.0,75,0.00,,,0.00,636.00,VWS V14.01,2013-03-09 18:03:00,
2013-03-09 10:08:00,54.9,46.8,30.28,NW,313,0.0,3.0,74,0.00,,,0.00,647.00,VWS V14.01,2013-03-09 18:08:00,
2013-03-09 10:13:00,54.9,46.4,30.28,NNW,332,2.0,3.0,73,0.00,,,0.00,656.00,VWS V14.01,2013-03-09 18:13:00,
2013-03-09 10:18:00,54.8,46.3,30.29,NW,314,2.0,4.0,73,0.00,,,0.00,671.00,VWS V14.01,2013-03-09 18:18:00,
2013-03-09 10:23:00,54.8,46.3,30.29,North,350,1.0,3.0,73,0.00,,,0.00,684.00,VWS V14.01,2013-03-09 18:23:00,
2013-03-09 10:28:00,55.4,46.5,30.29,North,5,1.0,4.0,72,0.00,,,0.00,707.00,VWS V14.01,2013-03-09 18:28:00,
2013-03-09 10:33:00,55.4,46.5,30.29,West,281,2.0,4.0,72,0.00,,,0.00,686.00,VWS V14.01,2013-03-09 18:33:00,
2013-03-09 10:38:00,55.2,46.3,30.29,West,270,3.0,7.0,72,0.00,,,0.00,178.00,VWS V14.01,2013-03-09 18:38:00,
2013-03-09 10:43:00,54.5,46.4,30.29,WSW,248,5.0,7.0,74,0.00,,,0.00,724.00,VWS V14.01,2013-03-09 18:43:00,
2013-03-09 10:48:00,54.2,46.5,30.30,WSW,254,5.0,8.0,75,0.00,,,0.00,756.00,VWS V14.01,2013-03-09 18:48:00,
2013-03-09 10:53:00,54.2,45.8,30.30,NW,311,1.0,8.0,73,0.00,,,0.00,729.00,VWS V14.01,2013-03-09 18:53:00,
2013-03-09 10:58:00,54.5,46.4,30.29,West,272,5.0,8.0,74,0.00,,,0.00,735.00,VWS V14.01,2013-03-09 18:58:00,
2013-03-09 11:03:00,54.8,46.7,30.29,WNW,287,3.0,7.0,74,0.00,,,0.00,747.00,VWS V14.01,2013-03-09 19:03:00,
2013-03-09 11:08:00,55.0,46.9,30.29,WNW,291,3.0,7.0,74,0.00,,,0.00,751.00,VWS V14.01,2013-03-09 19:08:00,
2013-03-09 11:13:00,55.1,47.0,30.29,West,270,1.0,5.0,74,0.00,,,0.00,752.00,VWS V14.01,2013-03-09 19:13:00,
2013-03-09 11:18:00,55.4,46.9,30.29,WNW,286,2.0,7.0,73,0.00,,,0.00,759.00,VWS V14.01,2013-03-09 19:18:00,
2013-03-09 11:23:00,55.6,47.1,30.29,WNW,284,2.0,5.0,73,0.00,,,0.00,768.00,VWS V14.01,2013-03-09 19:23:00,
2013-03-09 11:28:00,55.9,47.0,30.29,West,273,3.0,5.0,72,0.00,,,0.00,772.00,VWS V14.01,2013-03-09 19:28:00,
2013-03-09 11:33:00,55.8,46.9,30.29,West,260,5.0,5.0,72,0.00,,,0.00,773.00,VWS V14.01,2013-03-09 19:33:00,
2013-03-09 11:38:00,55.9,46.3,30.29,West,281,1.0,6.0,70,0.00,,,0.00,779.00,VWS V14.01,2013-03-09 19:38:00,
2013-03-09 11:43:00,55.8,47.3,30.29,WNW,289,2.0,7.0,73,0.00,,,0.00,784.00,VWS V14.01,2013-03-09 19:43:00,
2013-03-09 11:48:00,55.9,47.0,30.30,WNW,299,4.0,7.0,72,0.00,,,0.00,788.00,VWS V14.01,2013-03-09 19:48:00,
2013-03-09 11:53:00,56.0,47.1,30.30,WNW,290,2.0,7.0,72,0.00,,,0.00,793.00,VWS V14.01,2013-03-09 19:53:00,
2013-03-09 11:58:00,55.7,46.8,30.30,West,273,2.0,7.0,72,0.00,,,0.00,791.00,VWS V14.01,2013-03-09 19:58:00,
2013-03-09 12:03:00,55.8,46.9,30.30,NW,317,4.0,7.0,72,0.00,,,0.00,793.00,VWS V14.01,2013-03-09 20:03:00,
2013-03-09 12:08:00,55.4,46.9,30.30,West,262,3.0,8.0,73,0.00,,,0.00,795.00,VWS V14.01,2013-03-09 20:08:00,
2013-03-09 12:13:00,55.5,47.4,30.30,WSW,247,5.0,5.0,74,0.00,,,0.00,796.00,VWS V14.01,2013-03-09 20:13:00,
2013-03-09 12:18:00,55.9,46.7,30.30,West,275,6.0,6.0,71,0.00,,,0.00,798.00,VWS V14.01,2013-03-09 20:18:00,
2013-03-09 12:23:00,56.0,46.7,30.30,WNW,299,4.0,6.0,71,0.00,,,0.00,798.00,VWS V14.01,2013-03-09 20:23:00,
2013-03-09 12:28:00,55.9,47.0,30.30,WNW,289,5.0,8.0,72,0.00,,,0.00,800.00,VWS V14.01,2013-03-09 20:28:00,
2013-03-09 12:33:00,55.8,47.3,30.30,NW,322,3.0,6.0,73,0.00,,,0.00,793.00,VWS V14.01,2013-03-09 20:33:00,
2013-03-09 12:38:00,56.1,47.6,30.30,NW,314,3.0,7.0,73,0.00,,,0.00,793.00,VWS V14.01,2013-03-09 20:38:00,
2013-03-09 12:43:00,56.1,47.2,30.29,WNW,293,3.0,5.0,72,0.00,,,0.00,791.00,VWS V14.01,2013-03-09 20:43:00,
2013-03-09 12:48:00,56.1,47.9,30.29,WNW,283,0.0,5.0,74,0.00,,,0.00,789.00,VWS V14.01,2013-03-09 20:48:00,
2013-03-09 12:53:00,56.3,47.4,30.29,SW,222,1.0,5.0,72,0.00,,,0.00,789.00,VWS V14.01,2013-03-09 20:53:00,
2013-03-09 12:58:00,56.6,46.9,30.29,NW,316,3.0,6.0,70,0.00,,,0.00,786.00,VWS V14.01,2013-03-09 20:58:00,
2013-03-09 13:04:00,57.0,47.7,30.29,NNW,329,2.0,6.0,71,0.00,,,0.00,782.00,VWS V14.01,2013-03-09 21:04:00,
2013-03-09 13:09:00,56.9,47.6,30.29,West,272,4.0,6.0,71,0.00,,,0.00,779.00,VWS V14.01,2013-03-09 21:09:00,
2013-03-09 13:14:00,57.0,47.3,30.29,WNW,299,1.0,7.0,70,0.00,,,0.00,772.00,VWS V14.01,2013-03-09 21:14:00,
2013-03-09 13:19:00,57.1,47.4,30.29,West,276,4.0,7.0,70,0.00,,,0.00,766.00,VWS V14.01,2013-03-09 21:19:00,
2013-03-09 13:24:00,56.6,46.6,30.29,NW,312,4.0,7.0,69,0.00,,,0.00,761.00,VWS V14.01,2013-03-09 21:24:00,
2013-03-09 13:29:00,56.8,46.8,30.29,WNW,286,1.0,7.0,69,0.00,,,0.00,754.00,VWS V14.01,2013-03-09 21:29:00,
2013-03-09 13:34:00,57.0,46.9,30.29,WSW,241,5.0,7.0,69,0.00,,,0.00,749.00,VWS V14.01,2013-03-09 21:34:00,
2013-03-09 13:39:00,56.9,47.2,30.29,NW,307,4.0,7.0,70,0.00,,,0.00,742.00,VWS V14.01,2013-03-09 21:39:00,
2013-03-09 13:44:00,56.7,47.8,30.29,WNW,282,6.0,6.0,72,0.00,,,0.00,733.00,VWS V14.01,2013-03-09 21:44:00,
2013-03-09 13:49:00,56.8,49.0,30.29,WNW,287,2.0,6.0,75,0.00,,,0.00,724.00,VWS V14.01,2013-03-09 21:49:00,
2013-03-09 13:54:00,57.3,49.1,30.29,WNW,293,1.0,4.0,74,0.00,,,0.00,710.00,VWS V14.01,2013-03-09 21:54:00,
2013-03-09 13:59:00,57.3,49.1,30.29,WSW,253,4.0,7.0,74,0.00,,,0.00,710.00,VWS V14.01,2013-03-09 21:59:00,
2013-03-09 14:04:00,57.3,49.1,30.29,NW,304,9.0,9.0,74,0.00,,,0.00,701.00,VWS V14.01,2013-03-09 22:04:00,
2013-03-09 14:09:00,57.1,49.3,30.29,West,260,1.0,9.0,75,0.00,,,0.00,689.00,VWS V14.01,2013-03-09 22:09:00,
2013-03-09 14:14:00,57.0,49.2,30.29,West,280,6.0,9.0,75,0.00,,,0.00,680.00,VWS V14.01,2013-03-09 22:14:00,
2013-03-09 14:19:00,56.4,48.9,30.29,WNW,283,4.0,9.0,76,0.00,,,0.00,668.00,VWS V14.01,2013-03-09 22:19:00,
2013-03-09 14:24:00,56.1,49.0,30.29,WSW,258,5.0,10.0,77,0.00,,,0.00,661.00,VWS V14.01,2013-03-09 22:24:00,
2013-03-09 14:29:00,55.8,49.0,30.29,West,277,6.0,10.0,78,0.00,,,0.00,656.00,VWS V14.01,2013-03-09 22:29:00,
2013-03-09 14:34:00,55.7,49.3,30.29,WSW,256,7.0,8.0,79,0.00,,,0.00,652.00,VWS V14.01,2013-03-09 22:34:00,
2013-03-09 14:39:00,55.8,49.7,30.29,WSW,258,8.0,9.0,80,0.00,,,0.00,649.00,VWS V14.01,2013-03-09 22:39:00,
2013-03-09 14:44:00,55.5,49.4,30.29,West,266,4.0,7.0,80,0.00,,,0.00,657.00,VWS V14.01,2013-03-09 22:44:00,
2013-03-09 14:49:00,55.5,49.1,30.29,WNW,285,4.0,7.0,79,0.00,,,0.00,608.00,VWS V14.01,2013-03-09 22:49:00,
2013-03-09 14:54:00,55.4,49.3,30.29,West,281,7.0,7.0,80,0.00,,,0.00,612.00,VWS V14.01,2013-03-09 22:54:00,
2013-03-09 14:59:00,55.4,49.3,30.29,WSW,256,2.0,7.0,80,0.00,,,0.00,582.00,VWS V14.01,2013-03-09 22:59:00,
2013-03-09 15:04:00,55.5,49.4,30.29,WNW,292,8.0,9.0,80,0.00,,,0.00,557.00,VWS V14.01,2013-03-09 23:04:00,
2013-03-09 15:09:00,55.4,49.3,30.29,WNW,298,5.0,9.0,80,0.00,,,0.00,555.00,VWS V14.01,2013-03-09 23:09:00,
2013-03-09 15:14:00,55.2,49.5,30.29,WNW,293,0.0,10.0,81,0.00,,,0.00,533.00,VWS V14.01,2013-03-09 23:14:00,
2013-03-09 15:19:00,55.2,49.5,30.29,WNW,285,3.0,10.0,81,0.00,,,0.00,527.00,VWS V14.01,2013-03-09 23:19:00,
2013-03-09 15:24:00,55.4,49.7,30.28,WNW,286,3.0,6.0,81,0.00,,,0.00,508.00,VWS V14.01,2013-03-09 23:24:00,
2013-03-09 15:29:00,55.4,49.3,30.29,NNW,345,3.0,8.0,80,0.00,,,0.00,483.00,VWS V14.01,2013-03-09 23:29:00,
2013-03-09 15:34:00,55.7,49.6,30.28,West,273,2.0,6.0,80,0.00,,,0.00,471.00,VWS V14.01,2013-03-09 23:34:00,
2013-03-09 15:39:00,55.7,49.6,30.28,West,266,1.0,6.0,80,0.00,,,0.00,454.00,VWS V14.01,2013-03-09 23:39:00,
2013-03-09 15:44:00,55.9,49.5,30.28,West,263,1.0,6.0,79,0.00,,,0.00,443.00,VWS V14.01,2013-03-09 23:44:00,
2013-03-09 15:49:00,55.8,49.0,30.28,WSW,258,6.0,8.0,78,0.00,,,0.00,424.00,VWS V14.01,2013-03-09 23:49:00,
2013-03-09 15:54:00,55.8,49.0,30.28,West,264,4.0,6.0,78,0.00,,,0.00,403.00,VWS V14.01,2013-03-09 23:54:00,
2013-03-09 15:59:00,55.8,49.0,30.28,NW,308,4.0,6.0,78,0.00,,,0.00,388.00,VWS V14.01,2013-03-09 23:59:00,
2013-03-09 16:04:00,55.7,49.0,30.28,WNW,300,4.0,10.0,78,0.00,,,0.00,373.00,VWS V14.01,2013-03-10 00:04:00,
2013-03-09 16:09:00,55.5,48.8,30.28,WNW,284,0.0,10.0,78,0.00,,,0.00,355.00,VWS V14.01,2013-03-10 00:09:00,
2013-03-09 16:14:00,55.4,49.0,30.28,WNW,289,4.0,6.0,79,0.00,,,0.00,329.00,VWS V14.01,2013-03-10 00:14:00,
2013-03-09 16:19:00,55.2,48.8,30.28,WNW,295,7.0,10.0,79,0.00,,,0.00,318.00,VWS V14.01,2013-03-10 00:19:00,
2013-03-09 16:24:00,55.0,49.0,30.28,WSW,252,5.0,6.0,80,0.00,,,0.00,304.00,VWS V14.01,2013-03-10 00:24:00,
2013-03-09 16:29:00,55.3,49.2,30.28,WNW,291,5.0,6.0,80,0.00,,,0.00,285.00,VWS V14.01,2013-03-10 00:29:00,
2013-03-09 16:34:00,55.4,49.0,30.28,WSW,258,3.0,5.0,79,0.00,,,0.00,267.00,VWS V14.01,2013-03-10 00:34:00,
2013-03-09 16:39:00,55.6,49.2,30.28,SW,218,7.0,7.0,79,0.00,,,0.00,250.00,VWS V14.01,2013-03-10 00:39:00,
2013-03-09 16:44:00,55.5,48.8,30.27,WNW,302,2.0,7.0,78,0.00,,,0.00,239.00,VWS V14.01,2013-03-10 00:44:00,
2013-03-09 16:49:00,55.0,48.3,30.27,NW,313,5.0,8.0,78,0.00,,,0.00,223.00,VWS V14.01,2013-03-10 00:49:00,
2013-03-09 16:54:00,54.6,48.2,30.28,West,275,9.0,9.0,79,0.00,,,0.00,206.00,VWS V14.01,2013-03-10 00:54:00,
2013-03-09 16:59:00,54.4,48.0,30.28,NW,320,4.0,9.0,79,0.00,,,0.00,185.00,VWS V14.01,2013-03-10 00:59:00,
2013-03-09 17:04:00,54.5,47.8,30.28,West,266,8.0,8.0,78,0.00,,,0.00,162.00,VWS V14.01,2013-03-10 01:04:00,
2013-03-09 17:09:00,54.4,47.7,30.28,West,277,3.0,8.0,78,0.00,,,0.00,148.00,VWS V14.01,2013-03-10 01:09:00,
2013-03-09 17:14:00,54.4,48.0,30.28,WNW,298,8.0,8.0,79,0.00,,,0.00,132.00,VWS V14.01,2013-03-10 01:14:00,
2013-03-09 17:19:00,54.1,47.7,30.28,WNW,302,4.0,10.0,79,0.00,,,0.00,102.00,VWS V14.01,2013-03-10 01:19:00,
2013-03-09 17:24:00,53.8,47.5,30.28,WNW,303,4.0,13.0,79,0.00,,,0.00,83.00,VWS V14.01,2013-03-10 01:24:00,
2013-03-09 17:29:00,53.6,47.3,30.28,NW,310,4.0,13.0,79,0.00,,,0.00,67.00,VWS V14.01,2013-03-10 01:29:00,
2013-03-09 17:34:00,53.3,47.3,30.28,WNW,299,4.0,9.0,80,0.00,,,0.00,53.00,VWS V14.01,2013-03-10 01:34:00,
2013-03-09 17:39:00,53.3,47.0,30.28,West,260,4.0,9.0,79,0.00,,,0.00,28.00,VWS V14.01,2013-03-10 01:39:00,
2013-03-09 17:44:00,53.2,47.2,30.28,WNW,290,2.0,7.0,80,0.00,,,0.00,25.00,VWS V14.01,2013-03-10 01:44:00,
2013-03-09 17:49:00,53.1,47.1,30.28,West,265,2.0,7.0,80,0.00,,,0.00,19.00,VWS V14.01,2013-03-10 01:49:00,
2013-03-09 17:55:00,53.0,47.0,30.28,WNW,301,5.0,7.0,80,0.00,,,0.00,12.00,VWS V14.01,2013-03-10 01:55:00,
2013-03-09 18:00:00,52.9,47.2,30.28,WNW,283,5.0,7.0,81,0.00,,,0.00,11.00,VWS V14.01,2013-03-10 02:00:00,
2013-03-09 18:05:00,52.8,46.8,30.28,NW,307,2.0,8.0,80,0.00,,,0.00,7.00,VWS V14.01,2013-03-10 02:05:00,
2013-03-09 18:10:00,52.8,47.1,30.29,NNW,341,0.0,8.0,81,0.00,,,0.00,5.00,VWS V14.01,2013-03-10 02:10:00,
2013-03-09 18:16:00,52.8,47.1,30.29,East,95,2.0,3.0,81,0.00,,,0.00,0.00,VWS V14.01,2013-03-10 02:16:00,
2013-03-09 18:21:00,52.7,47.0,30.30,SE,127,2.0,2.0,81,0.00,,,0.00,0.00,VWS V14.01,2013-03-10 02:21:00,
2013-03-09 18:26:00,52.7,47.0,30.30,South,179,0.0,4.0,81,0.00,,,0.00,0.00,VWS V14.01,2013-03-10 02:26:00,
2013-03-09 18:31:00,52.6,47.3,30.29,West,281,7.0,7.0,82,0.00,,,0.00,0.00,VWS V14.01,2013-03-10 02:31:00,
2013-03-09 18:36:00,52.5,47.2,30.30,SE,140,5.0,7.0,82,0.00,,,0.00,0.00,VWS V14.01,2013-03-10 02:36:00,
2013-03-09 18:41:00,52.4,47.1,30.30,SE,126,0.0,2.0,82,0.00,,,0.00,0.00,VWS V14.01,2013-03-10 02:41:00,
2013-03-09 18:46:00,52.4,47.4,30.30,West,270,1.0,3.0,83,0.00,,,0.00,0.00,VWS V14.01,2013-03-10 02:46:00,
2013-03-09 18:51:00,52.3,47.3,30.30,SW,228,1.0,1.0,83,0.00,,,0.00,0.00,VWS V14.01,2013-03-10 02:51:00,
2013-03-09 18:56:00,52.2,47.5,30.30,SW,227,0.0,1.0,84,0.00,,,0.00,0.00,VWS V14.01,2013-03-10 02:56:00,
2013-03-09 19:01:00,52.1,47.1,30.29,SW,227,0.0,0.0,83,0.00,,,0.00,0.00,VWS V14.01,2013-03-10 03:01:00,
2013-03-09 19:06:00,51.9,47.2,30.29,SW,229,1.0,2.0,84,0.00,,,0.00,0.00,VWS V14.01,2013-03-10 03:06:00,
2013-03-09 19:11:00,51.9,47.2,30.29,South,176,0.0,0.0,84,0.00,,,0.00,0.00,VWS V14.01,2013-03-10 03:11:00,
2013-03-09 19:16:00,51.7,47.0,30.30,South,176,0.0,1.0,84,0.00,,,0.00,0.00,VWS V14.01,2013-03-10 03:16:00,
2013-03-09 19:21:00,51.5,46.8,30.30,South,176,0.0,0.0,84,0.00,,,0.00,0.00,VWS V14.01,2013-03-10 03:21:00,
2013-03-09 19:26:00,51.4,47.0,30.30,South,176,0.0,0.0,85,0.00,,,0.00,0.00,VWS V14.01,2013-03-10 03:26:00,
2013-03-09 19:31:00,51.2,46.8,30.30,South,176,0.0,0.0,85,0.00,,,0.00,0.00,VWS V14.01,2013-03-10 03:31:00,
2013-03-09 19:36:00,51.1,46.8,30.30,South,176,0.0,2.0,85,0.00,,,0.00,0.00,VWS V14.01,2013-03-10 03:36:00,
2013-03-09 19:41:00,50.9,46.6,30.30,South,176,0.0,0.0,85,0.00,,,0.00,0.00,VWS V14.01,2013-03-10 03:41:00,
2013-03-09 19:46:00,50.8,46.8,30.30,South,176,1.0,1.0,86,0.00,,,0.00,0.00,VWS V14.01,2013-03-10 03:46:00,
2013-03-09 19:51:00,50.8,46.8,30.31,West,274,0.0,1.0,86,0.00,,,0.00,0.00,VWS V14.01,2013-03-10 03:51:00,
2013-03-09 19:56:00,50.7,46.7,30.31,West,274,2.0,2.0,86,0.00,,,0.00,0.00,VWS V14.01,2013-03-10 03:56:00,
2013-03-09 20:01:00,50.6,46.6,30.32,West,274,0.0,1.0,86,0.00,,,0.00,0.00,VWS V14.01,2013-03-10 04:01:00,
2013-03-09 20:06:00,50.5,46.8,30.32,West,274,3.0,3.0,87,0.00,,,0.00,0.00,VWS V14.01,2013-03-10 04:06:00,
2013-03-09 20:11:00,50.6,47.2,30.32,WNW,294,3.0,5.0,88,0.00,,,0.00,0.00,VWS V14.01,2013-03-10 04:11:00,
2013-03-09 20:16:00,50.6,47.2,30.32,West,270,3.0,5.0,88,0.00,,,0.00,0.00,VWS V14.01,2013-03-10 04:16:00,
2013-03-09 20:22:00,50.6,47.5,30.32,West,263,5.0,5.0,89,0.00,,,0.00,0.00,VWS V14.01,2013-03-10 04:22:00,
2013-03-09 20:27:00,50.7,47.6,30.32,WNW,293,1.0,5.0,89,0.00,,,0.00,0.00,VWS V14.01,2013-03-10 04:27:00,
2013-03-09 20:32:00,50.8,47.7,30.32,WNW,293,0.0,2.0,89,0.00,,,0.00,0.00,VWS V14.01,2013-03-10 04:32:00,
2013-03-09 20:37:00,50.8,47.7,30.32,WNW,285,0.0,3.0,89,0.00,,,0.00,0.00,VWS V14.01,2013-03-10 04:37:00,
2013-03-09 20:42:00,50.8,48.0,30.32,SW,235,0.0,4.0,90,0.00,,,0.00,0.00,VWS V14.01,2013-03-10 04:42:00,
2013-03-09 20:47:00,50.7,47.9,30.32,SW,235,0.0,4.0,90,0.00,,,0.00,0.00,VWS V14.01,2013-03-10 04:47:00,
2013-03-09 20:52:00,50.6,47.8,30.32,SW,235,1.0,1.0,90,0.00,,,0.00,0.00,VWS V14.01,2013-03-10 04:52:00,
2013-03-09 20:57:00,50.5,47.4,30.33,SW,235,0.0,1.0,89,0.00,,,0.00,0.00,VWS V14.01,2013-03-10 04:57:00,
2013-03-09 21:00:00,50.4,47.6,30.33,SW,235,0.0,1.0,90,0.00,,,0.00,0.00,VWS V14.01,2013-03-10 05:00:00,
2013-03-09 21:01:00,50.4,47.6,30.33,SW,235,1.0,1.0,90,0.00,,,0.00,0.00,VWS V14.01,2013-03-10 05:01:00,
2013-03-09 21:02:00,50.3,47.5,30.33,SW,235,0.0,1.0,90,0.00,,,0.00,0.00,VWS V14.01,2013-03-10 05:02:00,
2013-03-09 21:05:00,50.3,47.5,30.33,SW,235,1.0,1.0,90,0.00,,,0.00,0.00,VWS V14.01,2013-03-10 05:05:00,
2013-03-09 21:10:00,50.1,47.3,30.33,West,262,2.0,4.0,90,0.00,,,0.00,0.00,VWS V14.01,2013-03-10 05:10:00,
2013-03-09 21:15:00,50.1,47.3,30.33,WSW,256,0.0,2.0,90,0.00,,,0.00,0.00,VWS V14.01,2013-03-10 05:15:00,
2013-03-09 21:20:00,50.0,47.2,30.33,WSW,256,0.0,2.0,90,0.00,,,0.00,0.00,VWS V14.01,2013-03-10 05:20:00,
2013-03-09 21:25:00,49.8,47.0,30.33,WSW,256,0.0,0.0,90,0.00,,,0.00,0.00,VWS V14.01,2013-03-10 05:25:00,
2013-03-09 21:30:00,49.6,46.8,30.33,WSW,256,0.0,0.0,90,0.00,,,0.00,0.00,VWS V14.01,2013-03-10 05:30:00,
2013-03-09 21:35:00,49.5,46.7,30.33,WSW,256,0.0,0.0,90,0.00,,,0.00,0.00,VWS V14.01,2013-03-10 05:35:00,
2013-03-09 21:40:00,49.4,46.9,30.33,WSW,256,0.0,1.0,91,0.00,,,0.00,0.00,VWS V14.01,2013-03-10 05:40:00,
2013-03-09 21:45:00,49.3,46.8,30.33,WSW,256,0.0,2.0,91,0.00,,,0.00,0.00,VWS V14.01,2013-03-10 05:45:00,
2013-03-09 21:50:00,49.2,46.7,30.33,WSW,256,0.0,0.0,91,0.00,,,0.00,0.00,VWS V14.01,2013-03-10 05:50:00,
2013-03-09 21:55:00,49.0,46.5,30.33,WSW,256,2.0,2.0,91,0.00,,,0.00,0.00,VWS V14.01,2013-03-10 05:55:00,
2013-03-09 22:00:00,49.0,46.5,30.32,South,191,2.0,2.0,91,0.00,,,0.00,0.00,VWS V14.01,2013-03-10 06:00:00,
2013-03-09 22:05:00,48.9,46.4,30.32,South,177,0.0,2.0,91,0.00,,,0.00,0.00,VWS V14.01,2013-03-10 06:05:00,
2013-03-09 22:10:00,49.0,46.5,30.33,South,177,0.0,0.0,91,0.00,,,0.00,0.00,VWS V14.01,2013-03-10 06:10:00,
2013-03-09 22:15:00,48.8,46.3,30.32,South,177,0.0,0.0,91,0.00,,,0.00,0.00,VWS V14.01,2013-03-10 06:15:00,
2013-03-09 22:20:00,48.7,46.2,30.32,South,177,0.0,0.0,91,0.00,,,0.00,0.00,VWS V14.01,2013-03-10 06:20:00,
2013-03-09 22:25:00,48.6,46.1,30.32,South,176,0.0,2.0,91,0.00,,,0.00,0.00,VWS V14.01,2013-03-10 06:25:00,
2013-03-09 22:30:00,48.6,46.4,30.32,South,176,0.0,0.0,92,0.00,,,0.00,0.00,VWS V14.01,2013-03-10 06:30:00,
2013-03-09 22:35:00,48.5,46.0,30.32,South,176,0.0,1.0,91,0.00,,,0.00,0.00,VWS V14.01,2013-03-10 06:35:00,
2013-03-09 22:40:00,48.4,46.2,30.32,South,176,0.0,0.0,92,0.00,,,0.00,0.00,VWS V14.01,2013-03-10 06:40:00,
2013-03-09 22:45:00,48.2,46.0,30.32,South,177,0.0,1.0,92,0.00,,,0.00,0.00,VWS V14.01,2013-03-10 06:45:00,
2013-03-09 22:50:00,48.1,45.9,30.32,South,176,0.0,0.0,92,0.00,,,0.00,0.00,VWS V14.01,2013-03-10 06:50:00,
2013-03-09 22:55:00,48.1,45.9,30.32,South,177,0.0,1.0,92,0.00,,,0.00,0.00,VWS V14.01,2013-03-10 06:55:00,
2013-03-09 23:00:00,48.1,45.9,30.32,South,177,0.0,0.0,92,0.00,,,0.00,0.00,VWS V14.01,2013-03-10 07:00:00,
2013-03-09 23:05:00,48.0,45.8,30.32,South,177,0.0,1.0,92,0.00,,,0.00,0.00,VWS V14.01,2013-03-10 07:05:00,
2013-03-09 23:10:00,48.1,45.9,30.32,South,177,0.0,0.0,92,0.00,,,0.00,0.00,VWS V14.01,2013-03-10 07:10:00,
2013-03-09 23:15:00,47.9,45.7,30.31,South,177,0.0,1.0,92,0.00,,,0.00,0.00,VWS V14.01,2013-03-10 07:15:00,
2013-03-09 23:20:00,47.9,45.7,30.32,South,177,0.0,1.0,92,0.00,,,0.00,0.00,VWS V14.01,2013-03-10 07:20:00,
2013-03-09 23:25:00,47.8,45.6,30.32,South,177,1.0,1.0,92,0.00,,,0.00,0.00,VWS V14.01,2013-03-10 07:25:00,
2013-03-09 23:30:00,47.7,45.5,30.32,South,177,0.0,0.0,92,0.00,,,0.00,0.00,VWS V14.01,2013-03-10 07:30:00,
2013-03-09 23:35:00,47.7,45.5,30.32,South,177,0.0,1.0,92,0.00,,,0.00,0.00,VWS V14.01,2013-03-10 07:35:00,
2013-03-09 23:40:00,47.6,45.4,30.31,South,177,0.0,0.0,92,0.00,,,0.00,0.00,VWS V14.01,2013-03-10 07:40:00,
2013-03-09 23:45:00,47.6,45.4,30.31,South,177,0.0,1.0,92,0.00,,,0.00,0.00,VWS V14.01,2013-03-10 07:45:00,
2013-03-09 23:50:00,47.5,45.3,30.31,South,177,0.0,0.0,92,0.00,,,0.00,0.00,VWS V14.01,2013-03-10 07:50:00,
2013-03-09 23:55:00,47.5,45.3,30.31,South,181,1.0,2.0,92,0.00,,,0.00,0.00,VWS V14.01,2013-03-10 07:55:00,